[[{"header":{"parameterUnit":"m.s-1","parameterCategory":1,"la1":30.2991,"la2":30.254,"lo1":-89.0895,"lo2":-89.0444,"dy":0.0017,"dx":0.0017,"nx":28,"ny":28,"refTime":"2025-01-16T03:00:00:Z","depth":0,"parameterNumber":2,"parameterNumberName":"U-component_of_WINDS"},"data":[0,0,0,0,0,0,0,0,0,0,0,0,0,0,0,0,0,0,0,0,0,0,0,0,0,0,0,0,0,0,0,0,0,0,0,0,0,0,0,0,0,0,0,0,0,0,0,0,0,0,0,0,0,0,0,0,0,0,-2.2541,-2.254,0,-2.2523,-2.2523,-2.2523,-2.2506,-2.2505,-2.2505,-2.2505,-2.2486,-2.2485,-2.2485,0,0,0,0,0,0,0,0,0,0,0,0,0,-2.2558,-2.2558,-2.2541,-2.254,-2.254,-2.2523,-2.2523,-2.2523,-2.2506,-2.2505,-2.2505,-2.2505,-2.2486,-2.2486,-2.2485,0,0,0,0,0,0,0,0,0,0,0,0,0,-2.2547,-2.2558,-2.2541,-2.253,-2.2529,-2.2523,-2.2523,-2.2523,-2.2506,-2.2505,-2.2505,-2.2505,-2.2486,-2.2486,-2.2485,-2.2489,0,0,-2.2484,-2.2483,0,0,0,0,0,0,0,0,-2.2547,-2.2546,-2.2532,-2.253,-2.2529,-2.2516,-2.2522,-2.2511,-2.2506,-2.2514,-2.2505,-2.2505,-2.2496,-2.2495,-2.2492,-2.2488,-2.2487,-2.2484,-2.2483,-2.2483,-2.2483,0,0,0,0,0,0,0,-2.2548,-2.2547,-2.2534,-2.2531,-2.253,-2.2525,-2.2523,-2.252,-2.2507,-2.2514,-2.2512,-2.2511,-2.2495,-2.2493,-2.2492,-2.2487,-2.2484,-2.2483,-2.2483,-2.2483,-2.2485,-2.2485,0,0,0,0,0,0,-2.2551,-2.2548,-2.2534,-2.2533,-2.2538,-2.2525,-2.2523,-2.2521,-2.2507,-2.2505,-2.2511,-2.251,-2.2494,-2.2492,-2.2491,-2.2494,-2.2483,-2.2483,-2.2482,-2.2484,-2.2485,-2.2485,0,0,0,0,0,0,-2.2551,-2.255,-2.2535,-2.254,-2.2538,-2.2525,-2.2523,-2.2521,-2.2518,-2.2505,-2.2503,-2.2511,-2.2493,-2.2492,-2.249,-2.2493,-2.2483,-2.2482,-2.2484,-2.2485,-2.2485,-2.2501,0,0,0,0,0,0,-2.2552,-2.255,-2.2552,-2.254,-2.2538,-2.2534,-2.2523,-2.252,-2.2517,-2.2516,-2.2504,-2.2502,-2.2493,-2.249,-2.2489,-2.2492,-2.2482,-2.2484,-2.2484,-2.2485,-2.25,-2.2502,-2.2503,0,0,0,0,0,-2.2553,-2.2556,-2.2552,-2.255,-2.2539,-2.2534,-2.2533,-2.2523,-2.2518,-2.2519,-2.2511,-2.2502,-2.2493,-2.249,-2.2489,-2.2492,-2.2483,-2.2484,-2.2485,-2.2499,-2.2501,-2.2503,0,0,0,0,0,0,-2.2568,-2.2555,-2.2549,-2.255,-2.2543,-2.2532,-2.2533,-2.2526,-2.252,-2.2519,-2.2506,-2.2504,-2.2503,-2.2498,-2.2494,-2.2495,-2.2487,-2.2488,-2.2498,-2.2501,-2.2502,-2.2503,-2.2481,0,0,0,0,0,-2.2571,-2.2569,-2.2558,-2.2559,-2.2556,-2.2545,-2.2543,-2.2536,-2.2528,-2.2525,-2.2517,-2.251,-2.2506,-2.2503,-2.2498,-2.2499,-2.2496,-2.2501,-2.2503,-2.2504,-2.2504,-2.2504,-2.2506,-2.2488,-2.2488,-2.2488,0,0,-2.2578,-2.2571,-2.257,-2.2562,-2.2556,-2.2553,-2.2543,-2.2541,-2.2538,-2.2525,-2.2522,-2.2516,-2.2508,-2.2507,-2.2507,-2.2502,-2.2509,-2.2505,-2.2506,-2.2506,-2.2505,-2.2507,-2.2508,-2.2488,-2.2488,-2.2488,0,0,-2.2589,-2.2584,-2.2584,-2.2579,-2.2571,-2.2564,-2.2564,-2.2553,-2.2549,-2.2547,-2.2536,-2.2534,-2.2526,-2.2521,-2.2517,-2.2527,-2.2519,-2.2526,-2.2534,-2.2534,-2.2536,-2.2537,-2.254,-2.2541,-2.2526,-2.2526,-2.2526,0,-2.2599,-2.2595,-2.2585,-2.2584,-2.258,-2.2569,-2.2569,-2.2564,-2.2555,-2.2552,-2.2548,-2.2539,-2.2532,-2.253,-2.2533,-2.253,-2.253,-2.2526,-2.2536,-2.2538,-2.2539,-2.2541,-2.2542,-2.2527,-2.2527,-2.2527,-2.2527,0,-2.2607,-2.2604,-2.2605,-2.2597,-2.2594,-2.2593,-2.2583,-2.2581,-2.2575,-2.2568,-2.2566,-2.2558,-2.2551,-2.255,-2.2544,-2.2547,-2.2545,-2.2539,-2.2531,-2.2541,-2.2543,-2.2544,-2.2528,-2.2528,-2.2528,-2.2527,0,0,-2.2625,-2.2613,-2.2613,-2.2609,-2.26,-2.2597,-2.2596,-2.2591,-2.2589,-2.2583,-2.2581,-2.2576,-2.257,-2.2566,-2.2559,-2.2559,-2.2567,-2.2553,-2.2552,-2.2555,-2.257,-2.2574,-2.2575,-2.2562,-2.2562,-2.2563,-2.257,0,-2.2634,-2.2632,-2.2623,-2.2623,-2.2621,-2.261,-2.2609,-2.2603,-2.2597,-2.2594,-2.2587,-2.2583,-2.2577,-2.2574,-2.2574,-2.2566,-2.257,-2.2566,-2.256,-2.256,-2.2561,-2.2577,-2.2581,-2.2589,-2.2571,-2.2572,-2.2572,0,-2.2644,-2.2639,-2.2639,-2.263,-2.2628,-2.2628,-2.2622,-2.2619,-2.2612,-2.2608,-2.2603,-2.2596,-2.2594,-2.2587,-2.2584,-2.2581,-2.2579,-2.2575,-2.2575,-2.2573,-2.2566,-2.2574,-2.2591,-2.2592,-2.2573,-2.2573,-2.2573,0,-2.2657,-2.265,-2.2649,-2.2647,-2.2636,-2.2636,-2.2632,-2.2624,-2.2622,-2.2616,-2.2614,-2.2609,-2.2606,-2.2602,-2.2593,-2.2589,-2.259,-2.2583,-2.2586,-2.2586,-2.2586,-2.2586,-2.2601,-2.2586,-2.2586,-2.2586,-2.2586,0,-2.2667,-2.2667,-2.2655,-2.2654,-2.2654,-2.2645,-2.2645,-2.2639,-2.2633,-2.2631,-2.2622,-2.262,-2.2609,-2.2606,-2.2599,-2.2597,-2.2596,-2.2592,-2.259,-2.2592,-2.2593,-2.2589,-2.2588,-2.2586,-2.2586,-2.2586,-2.2586,0,-2.268,-2.2673,-2.2671,-2.2662,-2.2659,-2.266,-2.2651,-2.265,-2.2644,-2.2642,-2.264,-2.2631,-2.2626,-2.2618,-2.2611,-2.2606,-2.2606,-2.2603,-2.2608,-2.2607,-2.261,-2.2609,-2.2623,-2.2624,-2.2609,-2.2609,-2.2609,0,-2.2687,-2.2687,-2.2678,-2.2676,-2.2672,-2.2669,-2.2666,-2.2657,-2.2655,-2.2647,-2.2647,-2.2642,-2.2638,-2.2632,-2.2624,-2.2619,-2.2615,-2.262,-2.2614,-2.2616,-2.2614,-2.2614,-2.2613,-2.2621,-2.2621,-2.2621,-2.2621,0,-2.2699,-2.2695,-2.2692,-2.2687,-2.2684,-2.268,-2.2675,-2.2674,-2.2664,-2.2662,-2.2657,-2.2654,-2.2648,-2.2643,-2.2637,-2.2632,-2.2625,-2.2624,-2.2624,-2.2626,-2.2628,-2.2626,-2.2611,-2.2623,-2.2623,-2.2623,-2.2623,-2.2623,-2.2708,-2.2708,-2.2702,-2.2698,-2.2694,-2.269,-2.2688,-2.2682,-2.2679,-2.2673,-2.2668,-2.2664,-2.2658,-2.2649,-2.2645,-2.2641,-2.2638,-2.2638,-2.2638,-2.2638,-2.2639,-2.263,-2.264,-2.264,-2.264,-2.264,-2.264,0,-2.2719,-2.2715,-2.2712,-2.2706,-2.2703,-2.2698,-2.2692,-2.269,-2.2687,-2.2682,-2.2678,-2.2673,-2.2669,-2.2661,-2.2656,-2.2655,-2.2651,-2.2654,-2.2653,-2.2652,-2.2643,-2.2643,-2.2656,-2.2656,-2.2656,-2.2656,-2.2656,-2.2656,-2.2724,-2.2723,-2.2719,-2.2715,-2.2711,-2.2708,-2.2705,-2.2701,-2.2697,-2.2692,-2.2689,-2.2684,-2.2677,-2.2672,-2.2667,-2.2665,-2.2663,-2.2666,-2.2663,-2.2654,-2.2653,-2.2651,-2.2651,-2.2666,-2.2666,-2.2672,-2.2672,-2.2673]},{"header":{"parameterUnit":"m.s-1","parameterCategory":1,"la1":30.2991,"la2":30.254,"lo1":-89.0895,"lo2":-89.0444,"dy":0.0017,"dx":0.0017,"nx":28,"ny":28,"refTime":"2025-01-16T03:00:00:Z","depth":0,"parameterNumber":3,"parameterNumberName":"V-component_of_WINDS"},"data":[0,0,0,0,0,0,0,0,0,0,0,0,0,0,0,0,0,0,0,0,0,0,0,0,0,0,0,0,0,0,0,0,0,0,0,0,0,0,0,0,0,0,0,0,0,0,0,0,0,0,0,0,0,0,0,0,0,0,2.4902,2.4902,0,2.4912,2.4912,2.4912,2.4977,2.4979,2.498,2.4982,2.4991,2.499,2.4989,0,0,0,0,0,0,0,0,0,0,0,0,0,2.494,2.4939,2.4902,2.4902,2.4902,2.4912,2.4912,2.4912,2.4977,2.4979,2.4981,2.4982,2.4992,2.499,2.4989,0,0,0,0,0,0,0,0,0,0,0,0,0,2.4934,2.4939,2.4902,2.4936,2.4939,2.4912,2.4912,2.4912,2.4976,2.4979,2.4981,2.4983,2.4992,2.499,2.4989,2.493,0,0,2.4983,2.4982,0,0,0,0,0,0,0,0,2.4935,2.4933,2.4931,2.4933,2.4937,2.4946,2.4929,2.4918,2.4976,2.4962,2.4982,2.4985,2.4974,2.4974,2.4971,2.4931,2.4931,2.4983,2.4982,2.4981,2.498,0,0,0,0,0,0,0,2.4935,2.4933,2.4906,2.4931,2.4934,2.4951,2.4953,2.4928,2.4955,2.4964,2.4968,2.4969,2.4976,2.4972,2.4971,2.4931,2.4983,2.4981,2.498,2.4979,2.4848,2.4846,0,0,0,0,0,0,2.4931,2.4933,2.4906,2.4906,2.4942,2.4948,2.495,2.4941,2.4955,2.496,2.4967,2.4972,2.4974,2.4973,2.4972,2.4908,2.4981,2.4979,2.4978,2.485,2.4847,2.4845,0,0,0,0,0,0,2.4931,2.4928,2.4905,2.4921,2.4919,2.4945,2.4934,2.4939,2.4936,2.4958,2.4963,2.4957,2.4976,2.4974,2.4941,2.4909,2.4978,2.4977,2.4853,2.4849,2.4846,2.4776,0,0,0,0,0,0,2.4932,2.4927,2.4905,2.492,2.4918,2.4873,2.4932,2.4938,2.4932,2.4939,2.495,2.4954,2.4978,2.4943,2.4939,2.4907,2.4975,2.4856,2.4851,2.4847,2.4782,2.4771,2.4761,0,0,0,0,0,2.4933,2.4884,2.4903,2.49,2.4891,2.4871,2.4871,2.4899,2.4929,2.4908,2.4922,2.4954,2.4913,2.4939,2.4935,2.4902,2.4858,2.4853,2.4848,2.4786,2.4773,2.4762,0,0,0,0,0,0,2.4863,2.4886,2.4908,2.4862,2.4864,2.4882,2.4856,2.4883,2.4876,2.4883,2.4918,2.492,2.4882,2.4889,2.4918,2.4849,2.4891,2.4885,2.4846,2.4834,2.4824,2.4824,2.4974,0,0,0,0,0,2.4842,2.4824,2.4846,2.4803,2.4803,2.4829,2.4822,2.4844,2.4847,2.4848,2.4861,2.4863,2.4851,2.4842,2.4832,2.4783,2.4788,2.4758,2.4748,2.474,2.4734,2.4712,2.47,2.4827,2.4827,2.4827,0,0,2.4799,2.4809,2.4796,2.4789,2.4794,2.4776,2.4829,2.4807,2.4795,2.4845,2.4815,2.4824,2.483,2.4789,2.4771,2.4793,2.47,2.4733,2.4726,2.4725,2.4705,2.4693,2.4683,2.4823,2.4824,2.4825,0,0,2.4711,2.4716,2.4683,2.4687,2.4694,2.4712,2.4704,2.4719,2.4727,2.4698,2.4736,2.4722,2.4699,2.4703,2.4702,2.4619,2.4649,2.4615,2.4562,2.454,2.4531,2.4522,2.4495,2.4485,2.4609,2.4608,2.4608,0,2.4657,2.4631,2.4662,2.4639,2.4636,2.4682,2.465,2.4652,2.4655,2.4652,2.4677,2.4652,2.4659,2.4621,2.4602,2.4598,2.4592,2.4614,2.4529,2.4521,2.4513,2.4489,2.4478,2.4604,2.4605,2.4605,2.4606,0,2.4565,2.4547,2.4519,2.4523,2.4517,2.4489,2.4517,2.4507,2.453,2.4546,2.4517,2.4527,2.4522,2.4514,2.4535,2.448,2.4494,2.4523,2.4567,2.4497,2.4474,2.4465,2.4599,2.46,2.4601,2.4602,0,0,2.4433,2.4456,2.4446,2.445,2.4462,2.4449,2.4424,2.4419,2.4412,2.4412,2.4394,2.4375,2.4404,2.4402,2.4424,2.4405,2.4343,2.4437,2.4438,2.4422,2.4287,2.4267,2.4255,2.4362,2.4361,2.4359,2.4288,0,2.4351,2.4311,2.434,2.4295,2.428,2.4325,2.4304,2.431,2.4324,2.4315,2.4331,2.4319,2.4355,2.4355,2.4337,2.4354,2.4317,2.4359,2.4348,2.4347,2.4347,2.4243,2.422,2.4152,2.4278,2.4277,2.4276,0,2.4251,2.4249,2.4203,2.4222,2.4217,2.4197,2.4198,2.4187,2.4195,2.4208,2.4208,2.4236,2.4215,2.4257,2.4229,2.4258,2.4255,2.4262,2.426,2.4262,2.4308,2.4244,2.413,2.4121,2.4262,2.4263,2.4264,0,2.4163,2.4149,2.4121,2.4122,2.4142,2.4128,2.4136,2.4146,2.4143,2.4143,2.4142,2.4138,2.4137,2.4135,2.4162,2.419,2.4132,2.4176,2.4144,2.4143,2.4131,2.4132,2.4018,2.4125,2.4125,2.4125,2.4125,0,2.407,2.4041,2.4082,2.4065,2.4034,2.4068,2.4037,2.405,2.406,2.4047,2.4084,2.4071,2.4107,2.4098,2.412,2.4096,2.4094,2.4105,2.4111,2.4102,2.4101,2.4102,2.4109,2.4122,2.4123,2.4123,2.4124,0,2.3967,2.3993,2.3966,2.3988,2.3993,2.397,2.3989,2.3975,2.3993,2.3976,2.3974,2.4002,2.3994,2.4022,2.4017,2.4032,2.3997,2.401,2.3995,2.4,2.3967,2.3971,2.3852,2.3839,2.3951,2.395,2.3949,0,2.3907,2.3886,2.3907,2.3902,2.3908,2.3898,2.3896,2.3929,2.3925,2.3935,2.392,2.3915,2.3913,2.3899,2.3919,2.3917,2.3932,2.389,2.3932,2.3925,2.3935,2.3937,2.3936,2.3882,2.3881,2.3879,2.3879,0,2.38,2.3814,2.381,2.381,2.3807,2.3808,2.3812,2.3806,2.3842,2.3836,2.3829,2.3827,2.3825,2.382,2.3823,2.3832,2.3862,2.3865,2.3858,2.3851,2.3844,2.385,2.3974,2.3868,2.3869,2.387,2.3871,2.3871,2.3718,2.3703,2.3717,2.3711,2.3718,2.3722,2.3711,2.3729,2.3723,2.3725,2.3744,2.3734,2.3746,2.3753,2.3759,2.3752,2.3772,2.3761,2.3759,2.3756,2.3752,2.3843,2.3753,2.3753,2.3753,2.3754,2.3754,0,2.3615,2.3627,2.3621,2.3628,2.3624,2.3652,2.366,2.3655,2.3645,2.3654,2.3652,2.3646,2.3643,2.3664,2.3664,2.3655,2.3669,2.3654,2.3656,2.3658,2.3733,2.374,2.3643,2.3643,2.3643,2.3643,2.3643,2.3643,2.3562,2.3539,2.3556,2.3538,2.3549,2.354,2.3543,2.3547,2.3555,2.3546,2.3544,2.3558,2.3573,2.3575,2.3574,2.358,2.358,2.356,2.3572,2.3641,2.3652,2.3663,2.367,2.3559,2.3559,2.3498,2.3498,2.3497]}]]